EW2835 Weather Reports


time (UTC)temp
F
wind
direction
speed
knots
gust
knots
rain 1hr
in
rain 24hr
in
rain mn
in
humidity
%
barometer
mb
20260905051605 56 236 1.7 8.7 0.00 0.36 0.00 96 1013.5
20260905050045 56 248 0.9 6.1 0.00 0.36 0.00 96 1013.4
20260905044552 56 269 2.6 7.8 0.00 0.36 0.00 96 1013.3
20260905043038 56 263 0.0 7.0 0.00 0.36 0.00 96 1013.2
20260905041535 56 272 0.9 3.5 0.00 0.36 0.00 96 1013.0
20260905040034 56 241 0.0 7.0 0.00 0.36 0.00 96 1012.9
20260905034535 56 163 0.9 3.5 0.00 0.36 0.00 96 1012.8
20260905033043 56 244 0.0 3.5 0.00 0.36 0.00 96 1012.6
20260905031527 57 219 0.0 7.0 0.00 0.36 0.00 96 1012.5
20260905030023 57 221 0.9 7.8 0.00 0.36 0.00 96 1012.3
20260905024521 57 250 0.0 3.5 0.00 0.36 0.00 96 1012.1
20260905023042 57 277 0.9 7.8 0.00 0.36 0.00 96 1012.0
20260905021518 57 231 0.0 2.6 0.00 0.36 0.00 96 1011.8
20260905020023 57 263 1.7 7.0 0.00 0.36 0.00 97 1011.8
20260905014514 57 261 0.0 3.5 0.00 0.36 0.00 97 1011.8
20260905013014 57 275 0.0 7.8 0.00 0.36 0.00 97 1011.6
20260905011512 58 261 0.9 3.5 0.00 0.36 0.00 96 1011.6
20260905010011 58 152 0.0 4.3 0.00 0.36 0.00 97 1011.6
20260905004514 58 252 0.9 6.1 0.00 0.36 0.00 97 1011.5
20260905003007 59 256 1.7 7.8 0.00 0.36 0.00 97 1011.4
20260905001515 59 186 0.0 5.2 0.00 0.36 0.00 97 1011.2
20260905000003 59 191 0.0 3.5 0.00 0.36 0.00 97 1011.1
20260904234502 59 277 0.0 3.5 0.00 0.36 0.00 97 1011.0
20260904233103 59 223 0.0 4.3 0.00 0.36 0.00 97 1011.0
20260904231603 59 252 0.0 3.5 0.00 0.36 0.00 97 1010.9
20260904230055 60 227 0.9 3.5 0.00 0.36 0.00 97 1010.7
20260904224602 60 189 0.9 2.6 0.00 0.36 0.00 97 1010.7
20260904223055 60 269 0.0 4.3 0.00 0.36 0.00 97 1010.4
20260904221549 60 244 0.0 3.5 0.00 0.36 0.00 97 1010.1
20260904220107 60 271 0.9 4.3 0.00 0.36 0.00 97 1009.7
20260904214544 60 298 0.0 3.5 0.00 0.36 0.36 97 1009.5
20260904213043 60 317 0.0 7.8 0.00 0.36 0.36 97 1009.1
20260904211551 60 276 0.0 2.6 0.00 0.36 0.36 97 1008.9
20260904210047 61 286 0.9 3.5 0.00 0.36 0.36 97 1008.9
20260904204547 61 188 0.9 8.7 0.00 0.36 0.36 97 1008.7
20260904203044 60 248 0.9 4.3 0.00 0.36 0.36 97 1008.5
20260904201539 60 7 0.0 4.3 0.00 0.36 0.36 97 1008.2
20260904200040 61 163 0.0 5.2 0.00 0.36 0.36 97 1008.1
20260904194550 61 254 1.7 4.3 0.00 0.36 0.36 97 1008.2
20260904193041 61 14 0.0 6.1 0.00 0.36 0.36 96 1008.1
20260904191542 60 269 0.0 7.8 0.00 0.36 0.36 96 1007.9
20260904190035 60 193 0.9 7.0 0.03 0.36 0.36 96 1007.8
20260904184535 60 198 0.9 2.6 0.06 0.36 0.36 96 1008.0
20260904183038 61 287 1.7 6.1 0.06 0.36 0.36 95 1007.5
20260904181532 61 277 0.9 7.8 0.08 0.36 0.36 95 1007.4
20260904180030 61 226 1.7 5.2 0.06 0.33 0.33 95 1007.6
20260904174556 62 207 2.6 12.2 0.03 0.31 0.31 94 1006.8
20260904173029 63 229 2.6 7.0 0.02 0.30 0.30 94 1006.9
20260904171528 63 192 2.6 7.8 0.01 0.28 0.28 94 1007.0
20260904170027 63 271 0.0 7.0 0.00 0.28 0.28 94 1007.0
20260904164526 64 264 1.7 5.2 0.00 0.28 0.28 94 1006.8
20260904163026 64 244 1.7 8.7 0.00 0.28 0.28 94 1007.0
20260904160028 66 263 0.9 9.6 0.00 0.28 0.28 94 1006.3
20260904154527 67 273 1.7 7.8 0.06 0.28 0.28 94 1006.7
20260904153034 67 220 0.9 8.7 0.27 0.28 0.28 94 1006.2
20260904151527 68 225 3.5 9.6 0.27 0.28 0.28 93 1006.1
20260904150025 69 269 3.5 13.9 0.27 0.28 0.28 90 1005.7
20260904144523 73 244 3.5 18.2 0.20 0.22 0.21 81 1005.8
20260904143024 76 196 3.5 9.6 0.00 0.02 0.01 67 1004.0
20260904141520 77 271 2.6 20.9 0.00 0.02 0.01 66 1004.0
20260904140020 76 295 2.6 14.8 0.00 0.02 0.01 66 1004.2
20260904134516 77 103 1.7 13.0 0.00 0.02 0.01 66 1004.6
20260904133013 75 259 1.7 20.9 0.00 0.02 0.01 69 1004.6
20260904131509 75 223 2.6 12.2 0.00 0.02 0.01 71 1004.9
20260904130007 74 290 1.7 9.6 0.00 0.02 0.01 72 1005.2
20260904124506 74 306 4.3 13.9 0.00 0.02 0.01 72 1005.2
20260904123006 73 354 0.9 7.8 0.00 0.02 0.01 73 1005.5
20260904121505 73 290 3.5 15.6 0.00 0.02 0.01 72 1005.8
20260904120005 74 196 3.5 12.2 0.00 0.02 0.01 72 1006.0
20260904114601 73 148 3.5 10.4 0.00 0.02 0.01 72 1006.2
20260904113102 74 166 2.6 13.0 0.00 0.02 0.01 72 1006.5
20260904111556 74 52 3.5 16.5 0.00 0.02 0.01 71 1006.8
20260904110057 74 328 1.7 10.4 0.00 0.02 0.01 72 1007.0
20260904104559 74 200 4.3 16.5 0.00 0.02 0.01 73 1007.4
20260904103052 74 308 2.6 7.8 0.00 0.02 0.01 73 1007.7
20260904101559 72 217 1.7 13.0 0.00 0.02 0.01 76 1008.1
20260904100045 72 76 3.5 10.4 0.00 0.02 0.01 76 1008.3
20260904094544 72 263 2.6 12.2 0.00 0.02 0.01 77 1008.3
20260904093104 71 228 3.5 12.2 0.00 0.02 0.01 77 1008.4
20260904091540 72 159 3.5 11.3 0.00 0.02 0.01 76 1008.6
20260904090041 73 325 2.6 17.4 0.00 0.02 0.01 75 1008.9
20260904084536 72 113 2.6 13.0 0.00 0.02 0.01 75 1009.2
20260904083033 72 290 2.6 16.5 0.00 0.02 0.01 77 1009.2
20260904081530 72 184 3.5 10.4 0.00 0.02 0.01 79 1009.3
20260904080026 69 183 3.5 12.2 0.01 0.02 0.01 82 1009.6
20260904074524 69 160 2.6 10.4 0.01 0.02 0.01 82 1009.7
20260904073023 69 218 2.6 10.4 0.01 0.02 0.01 82 1010.1
20260904071518 67 229 4.3 8.7 0.01 0.02 0.01 83 1010.4
20260904070035 67 175 2.6 10.4 0.00 0.01 0.00 83 1010.5
20260904064513 67 173 2.6 8.7 0.00 0.01 0.00 84 1010.6
20260904063013 65 189 0.0 7.8 0.00 0.01 0.00 87 1010.8
20260904061505 65 204 1.7 7.0 0.00 0.01 0.00 87 1011.1
20260904060003 64 170 1.7 5.2 0.00 0.01 0.00 87 1011.3
20260904054600 64 204 1.7 6.1 0.00 0.01 0.00 88 1011.2
20260904053055 64 202 2.6 8.7 0.00 0.01 0.00 88 1011.8